Weather History for Rochester, NH

Change the Weather History Date:

Thursday, November 22, 2012

  Actual Average (KSFM) Record (KSFM)
Temperature  
Mean Temperature 40 °F -  
Max Temperature 53 °F 43 °F 60 °F (1999)
Min Temperature 28 °F 26 °F 14 °F (2008)
Degree Days  
Heating Degree Days 24    
Moisture  
Dew Point 34 °F    
Average Humidity 85    
Maximum Humidity 100    
Minimum Humidity 52    
Precipitation  
Precipitation 0.00 in - - ()
Sea Level Pressure  
Sea Level Pressure 30.19 in    
Wind  
Wind Speed 4 mph (NW)    
Max Wind Speed 8 mph    
Max Gust Speed -    
Visibility 7 miles    
Events      
Averages and records for this station are not official NWS values.
T = Trace of Precipitation, MM = Missing Value Source: NWS Daily Summary

Daily Weather History Graph

Daily Weather History Graph

Search for Another Location

Airport:

Trip Planner

Search our weather history database for the weather conditions in past years. The results will help you decide how hot, cold, wet, or windy it might be!

Date:

Astronomy

Nov. 22, 2012 Rise Set
Actual Time 6:46 AM EST 4:13 PM EST
Civil Twilight 6:14 AM EST 4:44 PM EST
Nautical Twilight 5:39 AM EST 5:19 PM EST
Astronomical Twilight 5:05 AM EST 5:53 PM EST
Moon 1:05 PM EST (11/22) 12:54 AM EST (11/22)
Length of Visible Light 10h 29m
Length of Day
9h 27m
Waxing Gibbous, 71% of the Moon is Illuminated
Nov 22
Waxing Gibbous
Nov 28
Full
Dec 6
Last Quarter
Dec 13
New
Dec 20
First Quarter

Hourly Weather History & Observations

Time (EST) Temp. Windchill Dew Point Humidity Pressure Visibility Wind Dir Wind Speed Gust Speed Precip Events Conditions
12:47 AM 30.2 °F 22.6 °F 28.4 °F 93% 30.24 in 7.0 mi NW 8.1 mph - N/A   Mostly Cloudy
12:51 AM 32.0 °F 24.8 °F 30.0 °F 92% 30.25 in 7.0 mi NW 8.1 mph - N/A   Mostly Cloudy
1:51 AM 34.0 °F 28.0 °F 30.9 °F 89% 30.25 in 9.0 mi NW 6.9 mph - N/A   Overcast
2:51 AM 32.0 °F 27.5 °F 30.0 °F 92% 30.25 in 7.0 mi NW 4.6 mph - N/A   Mostly Cloudy
3:51 AM 32.0 °F 26.4 °F 30.0 °F 92% 30.24 in 7.0 mi NW 5.8 mph - N/A   Overcast
4:28 AM 30.2 °F 25.4 °F 28.4 °F 93% 30.23 in 6.0 mi NNW 4.6 mph - N/A   Partly Cloudy
4:51 AM 30.0 °F 23.2 °F 28.0 °F 92% 30.24 in 7.0 mi NW 6.9 mph - N/A   Scattered Clouds
5:00 AM 30.2 °F 23.4 °F 28.4 °F 93% 30.24 in 7.0 mi NNW 6.9 mph - N/A   Mostly Cloudy
5:51 AM 30.0 °F 23.2 °F 28.0 °F 92% 30.25 in 8.0 mi NW 6.9 mph - N/A   Mostly Cloudy
6:06 AM 28.4 °F 22.2 °F 28.4 °F 100% 30.25 in 8.0 mi NNW 5.8 mph - N/A   Scattered Clouds
6:51 AM 28.9 °F - 27.0 °F 92% 30.26 in 6.0 mi Calm Calm - N/A   Clear
8:51 AM 39.0 °F - 33.1 °F 79% 30.26 in 10.0 mi Calm Calm - N/A   Clear
9:51 AM 46.0 °F - 36.0 °F 68% 30.25 in 10.0 mi Calm Calm - N/A   Clear
11:51 AM 51.1 °F - 39.0 °F 63% 30.22 in 10.0 mi Variable 5.8 mph - N/A   Clear
12:51 PM 53.1 °F - 37.9 °F 57% 30.20 in 10.0 mi Variable 3.5 mph - N/A   Clear
1:51 PM 53.1 °F - 37.0 °F 55% 30.18 in 10.0 mi South 4.6 mph - N/A   Clear
2:51 PM 53.1 °F - 36.0 °F 52% 30.17 in 10.0 mi Calm Calm - N/A   Clear
3:51 PM 51.1 °F - 36.0 °F 56% 30.18 in 10.0 mi Calm Calm - N/A   Clear
4:51 PM 46.9 °F - 39.0 °F 74% 30.18 in 10.0 mi South 3.5 mph - N/A   Clear
5:51 PM 44.1 °F - 39.0 °F 82% 30.18 in 10.0 mi Calm Calm - N/A   Clear
6:51 PM 42.1 °F - 37.9 °F 85% 30.18 in 10.0 mi Calm Calm - N/A   Clear
7:51 PM 39.9 °F - 37.9 °F 93% 30.17 in 7.0 mi Calm Calm - N/A   Clear
8:47 PM 37.4 °F - 37.4 °F 100% 30.16 in 1.8 mi Calm Calm - N/A   Clear
8:51 PM 37.0 °F - 36.0 °F 96% 30.16 in 2.0 mi Calm Calm - N/A   Clear
9:00 PM 37.4 °F - 35.6 °F 93% 30.16 in 5.0 mi Calm Calm - N/A   Clear
9:25 PM 37.4 °F - 35.6 °F 93% 30.15 in 2.0 mi Calm Calm - N/A   Clear
9:35 PM 39.2 °F - 37.4 °F 93% 30.15 in 6.0 mi Calm Calm - N/A   Clear
9:51 PM 39.9 °F - 37.9 °F 93% 30.14 in 7.0 mi Calm Calm - N/A   Clear
10:17 PM 37.4 °F - 35.6 °F 93% 30.13 in 2.5 mi Calm Calm - N/A   Clear
10:27 PM 39.2 °F - 37.4 °F 93% 30.13 in 5.0 mi Calm Calm - N/A   Clear
10:51 PM 37.9 °F - 37.0 °F 97% 30.12 in 6.0 mi Calm Calm - N/A   Clear
11:51 PM 33.1 °F - 30.9 °F 92% 30.11 in 3.0 mi Calm Calm - N/A   Clear
11:58 PM 33.8 °F - 30.2 °F 87% 30.11 in 2.5 mi Calm Calm - N/A   Clear